TimeCDT,TemperatureF,Dew PointF,Humidity,Sea Level PressureIn,VisibilityMPH,Wind Direction,Wind SpeedMPH,Gust SpeedMPH,PrecipitationIn,Events,Conditions,WindDirDegrees,DateUTC
12:52 AM,54.0,43.0,66,30.02,10.0,SSE,5.8,-,N/A,,Clear,160,2013-09-15 05:52:00
1:52 AM,55.0,44.1,67,30.03,10.0,SSE,3.5,-,N/A,,Clear,160,2013-09-15 06:52:00
2:52 AM,57.0,44.1,62,30.03,10.0,South,3.5,-,N/A,,Clear,170,2013-09-15 07:52:00
3:52 AM,55.9,46.9,72,30.05,10.0,Calm,Calm,-,N/A,,Scattered Clouds,0,2013-09-15 08:52:00
4:52 AM,55.0,48.9,80,30.04,10.0,SSE,3.5,-,N/A,,Overcast,150,2013-09-15 09:52:00
5:52 AM,55.9,48.0,75,30.05,10.0,Calm,Calm,-,N/A,,Overcast,0,2013-09-15 10:52:00
6:52 AM,55.0,48.9,80,30.05,10.0,East,3.5,-,0.00,Rain,Light Rain,100,2013-09-15 11:52:00
7:52 AM,55.0,51.1,86,30.05,10.0,ENE,3.5,-,0.03,,Overcast,70,2013-09-15 12:52:00
8:52 AM,55.9,52.0,87,30.05,10.0,NE,4.6,-,0.04,,Overcast,50,2013-09-15 13:52:00
9:52 AM,55.9,53.1,90,30.04,10.0,NNE,6.9,-,0.07,Rain,Light Rain,30,2013-09-15 14:52:00
10:52 AM,57.0,53.1,87,30.04,5.0,ESE,4.6,-,0.05,Rain,Rain,110,2013-09-15 15:52:00
11:52 AM,57.9,54.0,87,30.03,6.0,ESE,3.5,-,0.09,Rain,Light Rain,120,2013-09-15 16:52:00
12:52 PM,59.0,55.0,87,30.01,8.0,SSE,5.8,-,0.01,Rain,Light Rain,160,2013-09-15 17:52:00
1:52 PM,60.1,57.0,90,30.00,6.0,Calm,Calm,-,0.01,Rain,Light Rain,0,2013-09-15 18:52:00
2:52 PM,60.1,57.0,90,30.03,9.0,North,5.8,-,0.00,,Overcast,360,2013-09-15 19:52:00
3:32 PM,60.8,57.2,88,30.03,3.0,North,3.5,-,0.03,Rain,Light Rain,360,2013-09-15 20:32:00
3:41 PM,59.0,57.2,94,30.03,2.0,NNE,3.5,-,0.06,Rain,Rain,20,2013-09-15 20:41:00
3:52 PM,59.0,57.0,93,30.04,2.5,Calm,Calm,-,0.10,Rain,Rain,0,2013-09-15 20:52:00
4:05 PM,59.0,57.2,94,30.03,3.0,Calm,Calm,-,0.04,Rain,Light Rain,0,2013-09-15 21:05:00
4:22 PM,59.0,57.2,94,30.03,7.0,Calm,Calm,-,0.04,,Overcast,0,2013-09-15 21:22:00
4:52 PM,59.0,57.0,93,30.04,8.0,North,3.5,-,0.04,,Overcast,350,2013-09-15 21:52:00
5:47 PM,59.0,57.2,94,30.05,8.0,NNW,5.8,-,N/A,,Overcast,330,2013-09-15 22:47:00
5:52 PM,59.0,57.0,93,30.06,8.0,NNW,6.9,-,N/A,,Overcast,340,2013-09-15 22:52:00
6:52 PM,59.0,55.9,90,30.08,9.0,North,6.9,-,N/A,,Overcast,350,2013-09-15 23:52:00
7:26 PM,57.2,55.4,94,30.09,10.0,North,6.9,-,N/A,,Mostly Cloudy,350,2013-09-16 00:26:00
7:52 PM,55.9,54.0,93,30.11,10.0,North,6.9,-,N/A,,Clear,350,2013-09-16 00:52:00
8:36 PM,55.4,53.6,94,30.12,9.0,North,4.6,-,N/A,,Mostly Cloudy,360,2013-09-16 01:36:00
8:52 PM,57.0,55.0,93,30.13,10.0,North,4.6,-,N/A,,Overcast,350,2013-09-16 01:52:00
9:41 PM,57.2,55.4,94,30.14,10.0,North,8.1,-,N/A,,Overcast,360,2013-09-16 02:41:00
9:52 PM,59.0,55.9,90,30.14,10.0,North,5.8,-,N/A,,Overcast,10,2013-09-16 02:52:00
10:52 PM,59.0,55.9,90,30.16,10.0,North,5.8,-,N/A,,Overcast,10,2013-09-16 03:52:00
11:04 PM,59.0,55.4,88,30.16,10.0,NNE,5.8,-,N/A,,Overcast,20,2013-09-16 04:04:00
11:22 PM,59.0,57.2,94,30.16,10.0,North,5.8,-,N/A,,Overcast,10,2013-09-16 04:22:00
11:52 PM,59.0,57.0,93,30.17,10.0,North,4.6,-,0.00,,Overcast,360,2013-09-16 04:52:00